Weather Roundup
Issued by NWS

Home | Current Version | Previous Version | Text Only | Print | Product List | Glossary On
Versions: 1 2 3 4 5 6 7 8 9 10 11 12 13 14 15 16 17 18 19 20 21 22 23 24 25 26 27 28 29 30 31 32 33 34 35 36 37 38 39 40 41 42 43 44 45 46 47 48 49 50
000
NZUS99 KDVN 142110
HRRCWA
HOURLY WEATHER ROUNDUP
NATIONAL WEATHER SERVICE QUAD CITIES IA IL
300 PM CST FRI DEC 14 2018

Note: "Fair" indicates few or no clouds below 12,000 feet with
no significant weather and/or obstructions to visibility.

* - These stations are not NWS stations and are not subject to NWS
quality control.  Some stations do not report weather such as fog
and some only report TMP and DP in whole degrees Celsius, which are
then converted to Fahrenheit.

...NORTHEAST IOWA..................................................

CITY           SKY/WX    TMP DP  RH WIND       PRES   REMARKS
DECORAH *      FAIR      37  25  60 SW3       30.19R
DUBUQUE        FAIR      41  24  51 N8        30.18F WCI  36
INDEPENDENCE * FAIR      42  30  62 NW5       30.21F WCI  39
OELWEIN *      NOT AVBL
WATERLOO       FAIR      44  25  47 CALM      30.22S

...SOUTHWEST AND SOUTH CENTRAL WISCONSIN...........................

CITY           SKY/WX    TMP DP  RH WIND       PRES   REMARKS
BOSCOBEL       FAIR      42  26  53 SW3       30.21F
JANESVILLE *   PTSUNNY   34  34 100 N3        30.19F FOG
LONE ROCK      FAIR      40  27  59 W5        30.20F WCI  37
MINERAL POINT* FAIR      43  30  61 NW7       30.18F WCI  39
MONROE *       FAIR      40  30  69 MISG      30.17S
PRAIRIE DU CHI FAIR      38  25  58 CALM      30.22S

...EAST CENTRAL IOWA...............................................

CITY           SKY/WX    TMP DP  RH WIND       PRES   REMARKS
CEDAR RAPIDS   FAIR      40  27  59 N8        30.20R WCI  34
CLINTON *      FOG       32  32 100 N3        30.24R VSB 1/4
DAVENPORT      FOG       32  31  96 NE5       30.24R VSB 1   WCI  27
IOWA CITY      FAIR      41  28  60 CALM      30.23R
MARSHALLTOWN   SUNNY     45  25  45 N6        30.21S WCI  42
MONTICELLO *   FAIR      43  27  52 N10       30.20S WCI  37
MUSCATINE *    CLOUDY    34  30  86 NE6       30.24R FOG     WCI  29
NEWTON *       SUNNY     43  25  49 N8        30.21S WCI  38
VINTON *       FAIR      40  24  53 N7        30.22S WCI  35

...NORTHWEST ILLINOIS..............................................

CITY           SKY/WX    TMP DP  RH WIND       PRES   REMARKS
FREEPORT *     FOG       31  31 100 CALM      30.24R VSB 1/4
MOLINE         CLOUDY    34  33  96 NE6       30.22R FOG     WCI  29
PERU *         CLOUDY    41  40  97 N7        30.17S FOG     WCI  36
ROCHELLE *     CLOUDY    36  35  96 N9        30.20R FOG     WCI  29
ROCKFORD       FOG       33  31  92 NW6       30.23R VSB 1/2 WCI  28
SAVANNA *      CLOUDY    32  32 100 CALM      30.24R FOG
STERLING/R.F.* FOG       34  33  96 N8        30.21R VSB 1/2 WCI  27

...SOUTHEAST IOWA AND NORTHEAST MISSOURI...........................

CITY           SKY/WX    TMP DP  RH WIND       PRES   REMARKS
BURLINGTON     FOG       34  32  92 N9        30.20R VSB 1/4 WCI  27
FAIRFIELD *    CLOUDY    30  30 100 N7        30.21R FOG     WCI  23
FORT MADISON * FOG       34  34 100 N9        30.20S VSB<1/4 WCI  26
KEOKUK *       FOG       34  34 100 N13       30.19R VSB<1/4 WCI  25
KIRKSVILLE     FOG       33  33 100 N9        30.20R VSB 1   WCI  25
MT PLEASANT *  FOG       32  32 100 N6        30.23R VSB 1   WCI  26
OTTUMWA        MOSUNNY   35  30  82 N9        30.21R WCI  28
WASHINGTON *   CLOUDY    32  32 100 N8        30.23R WCI  25

...WESTERN ILLINOIS................................................

CITY           SKY/WX    TMP DP  RH WIND       PRES   REMARKS
GALESBURG *    SNOW      36  36 100 N13       30.18F VSB<1/4 WCI  27
MACOMB *       FOG       37  37 100 N12       30.19R VSB 1/2 WCI  29
PEORIA         CLOUDY    41  40  96 NE7       30.15S FOG     WCI  36
QUINCY         FOG       38  37  97 N16       30.13S VSB 1   WCI  29

END...




USA.gov is the U.S. government's official web portal to all federal, state and local government web resources and services.